Flag for Germany Weather past 2 weeks in Rotenburg (Wümme), Lower Saxony, Germany

Now
40 °F

Passing clouds.


Feels Like: 40 °F
Forecast: 36 / 56 °F
Wind: 1 mph from South

Location: Bremen

Current Time: Apr 28, 2015 at 9:26:15 PM

Latest Report: Apr 28, 2015 at 9:00 PM


Visibility: 22 mi

Pressure: 30.09 "Hg

Humidity: 89%

Dew point: 36 °F

Location of Rotenburg (Wümme)Location

Historic Weather in Rotenburg (Wümme) — Graph

°F

Rotenburg (Wümme) temperature yesterday

Maximum temperature yesterday: 53 °F (at 3:00 PM)
Minimum temperature yesterday: 43 °F (at 6:00 AM)
Average temperature yesterday: 47 °F

Past Weeks' High & Low Weather Summary

 TemperatureHumidityPressure
High71 °F (Apr 15, 3:00 PM)100% (Apr 24, 4:00 AM)30.44 "Hg (Apr 24, 4:00 AM)
Low30 °F (Apr 28, 6:00 AM)36% (Apr 18, 3:00 PM)29.68 "Hg (Apr 27, 6:00 AM)
Average49 °F73%30.08 "Hg
* Reported Apr 13 8:00 PM — Apr 28 8:00 PM, Rotenburg (Wümme), Weather by CustomWeather, © 2015

Note: Actual official high and low records may vary slightly from our data, if they occured in-between our weather recording intervals... More about our weather records

Advertising

Rotenburg (Wümme) weather history for previous 24 hours

 ConditionsComfort  
Time TempWeatherWind HumidityBarometerVisibility
8:00 PM
Tue, Apr 28
41 °FOvercast.6 mph83%30.07 "Hg22 mi
7:00 PM43 °FPartly sunny.5 mph78%30.03 "Hg19 mi
6:00 PM44 °FOvercast.5 mph80%30.02 "Hg19 mi
4:00 PM51 °FOvercast.7 mph44%29.96 "Hg19 mi
3:00 PM53 °FPartly sunny.6 mph37%29.96 "Hg22 mi
2:00 PM53 °FScattered clouds.5 mph37%29.95 "Hg22 mi
1:00 PM51 °FPartly sunny.5 mph49%29.95 "Hg19 mi
12:00 PM49 °FPartly sunny.6 mph51%29.95 "Hg22 mi
11:00 AM47 °FPartly sunny.3 mph55%29.94 "Hg22 mi
10:00 AM45 °FPartly sunny.5 mph58%29.93 "Hg22 mi
9:00 AM43 °FPartly sunny.2 mph72%29.93 "Hg22 mi
8:00 AM36 °FPartly sunny.1 mph82%29.91 "Hg22 mi
7:00 AM31 °FPartly sunny.1 mph92%29.90 "Hg16 mi
6:00 AM30 °FFog.1 mph98%29.88 "Hg22 mi
4:00 AM31 °FPassing clouds.1 mph93%29.87 "Hg25 mi
3:00 AM31 °FPassing clouds.2 mph89%29.86 "Hg25 mi
2:00 AM33 °FPassing clouds.2 mph90%29.87 "Hg25 mi
1:00 AM41 °FPassing clouds.3 mph66%29.86 "Hg25 mi
12:00 AM42 °FOvercast.5 mph66%29.85 "Hg31 mi
10:00 PM
Mon, Apr 27
44 °FOvercast.6 mph61%29.85 "Hg31 mi
9:00 PM44 °FOvercast.6 mph61%29.83 "Hg31 mi
Weather by CustomWeather, © 2015

See weather overviewHow to use our weather pages